Find Starlink 31557

NORAD ID: 59357 Int'l Des: 2024-060 Owner: SPXS Country: US Constellation: starlink operational
LEOCIRCULAR

Current View

Loading 3D Globe...

About Starlink 31557

Starlink 31557 (NORAD 59357) is a starlink constellation satellite (v2 mini) launched Mar 31, 2024 by SPXS of US. It operates in LEO, CIRCULAR orbit with a mass of 730.00 kg.

About Starlink 31557

Description loading...

Upcoming Passes

Passes for default location (London). Set your location on the main map for personalized predictions.

Altitude History

Loading altitude history...

Two-Line Element Set

1 59357U 24060K 26171.04454977 .00001837 00000-0 76259-4 0 9990
2 59357 42.9995 37.7147 0001456 264.6121 95.4565 15.27587095125760
Epoch: Jun 20, 2026 • Age: 32 hours

Current Status

Altitude 487.6 km
Velocity 7.62 km/s
Sub-Earth Point -21.91°S, 174.82°W
Launch Date Mar 31, 2024
Age 2.2 years
Type internet

Technical Details

Classification Payload
Mass 730.00 kg
Dry Mass 700.00 kg
Total Mass 730.00 kg
Length 0.30 m
Diameter 4.10 m
Span 29.00 m
Shape Box + pan
Manufacturer SPXS
Bus Type Starlink V2M
Phase Status In Orbit
Owner/State SPXS/US

Most Searched